Home   Weather   Fairfield   Past weeks
Flag for USA

Past Weather in Fairfield, Oklahoma, USA — Yesterday and Last 2 Weeks

Now
51 °F

Overcast.


Feels Like: 51 °F
Forecast: 62 / 43 °F
Wind: No wind

Location: Drake Field

Current Time: Dec 5, 2019 at 9:31:29 am

Latest Report: Dec 5, 2019 at 7:53 am


Visibility: 10 mi

Pressure: 29.99 "Hg

Humidity: 56%

Dew Point: 36 °F

Location of FairfieldLocation

Past Weather in Fairfield — Graph

°F

Fairfield Temperature Yesterday

Maximum temperature yesterday: 60 °F (at 12:53 pm)
Minimum temperature yesterday: 27 °F (at 3:53 am)
Average temperature yesterday: 42 °F

High & Low Weather Summary for the Past Weeks

 TemperatureHumidityPressure
High67 °F (Nov 20, 11:53 am)100% (Nov 21, 7:53 am)30.46 "Hg (Nov 21, 7:53 am)
Low27 °F (Nov 24, 4:53 am)36% (Nov 26, 9:53 pm)29.44 "Hg (Nov 26, 2:53 pm)
Average46 °F80%29.98 "Hg
* Reported Nov 20 7:53 am — Dec 5 7:53 am, Fairfield. Weather by CustomWeather, © 2019

Note: Actual official high and low records may vary slightly from our data, if they occured in-between our weather recording intervals... More about our weather records

Fairfield Weather History for the Previous 24 Hours

Scroll right to see more
 ConditionsComfort  
Time TempWeatherWind HumidityBarometerVisibility
7:53 am
Thu, Dec 5
51 °FOvercast.No wind56%29.99 "Hg10 mi
6:53 am44 °FPassing clouds.No wind82%30.00 "Hg10 mi
5:53 am45 °FOvercast.No wind76%29.99 "Hg10 mi
4:53 am43 °FMostly cloudy.No wind86%29.99 "Hg10 mi
3:53 am44 °FPassing clouds.No wind79%29.99 "Hg10 mi
2:53 am44 °FMostly cloudy.3 mph76%30.01 "Hg10 mi
1:53 am42 °FPassing clouds.No wind82%30.02 "Hg10 mi
12:53 am43 °FPassing clouds.5 mph76%30.03 "Hg10 mi
11:53 pm
Wed, Dec 4
42 °FClear.No wind82%30.03 "Hg10 mi
10:53 pm43 °FClear.5 mph76%30.02 "Hg10 mi
9:53 pm43 °FClear.5 mph76%30.03 "Hg10 mi
8:53 pm42 °FClear.5 mph79%30.04 "Hg10 mi
7:53 pm42 °FClear.No wind76%30.04 "Hg10 mi
6:53 pm45 °FClear.3 mph71%30.04 "Hg10 mi
5:53 pm46 °FClear.No wind68%30.04 "Hg10 mi
4:53 pm54 °FSunny.5 mph45%30.02 "Hg10 mi
3:53 pm59 °FSunny.3 mph38%30.02 "Hg8 mi
2:53 pm60 °FSunny.7 mph38%30.03 "Hg9 mi
1:53 pm59 °FSunny.10 mph41%30.04 "Hg9 mi
12:53 pm60 °FSunny.7 mph39%30.04 "Hg10 mi
11:53 am57 °FSunny.7 mph44%30.06 "Hg10 mi
10:53 am54 °FSunny.3 mph51%30.07 "Hg10 mi
9:53 am46 °FSunny.3 mph73%30.09 "Hg10 mi
Weather by CustomWeather, © 2019

See weather overview

Advertising